Time,TemperatureF,DewpointF,PressureIn,WindDirection,WindDirectionDegrees,WindSpeedMPH,WindSpeedGustMPH,Humidity,HourlyPrecipIn,Conditions,Clouds,dailyrainin,SolarRadiationWatts/m^2,SoftwareType,DateUTC
2015-01-30 00:01:00,45.8,33.0,30.58,North,355,8.0,10.0,61,0.00,,,0.00,0,weatherlink.com 1.10,2015-01-30 06:01:00,
2015-01-30 00:16:00,45.5,33.0,30.58,North,360,4.0,11.0,61,0.00,,,0.00,0,weatherlink.com 1.10,2015-01-30 06:16:00,
2015-01-30 00:31:00,45.1,33.0,30.57,North,355,9.0,9.0,62,0.00,,,0.00,0,weatherlink.com 1.10,2015-01-30 06:31:00,
2015-01-30 00:46:00,44.6,33.0,30.57,North,360,9.0,10.0,63,0.00,,,0.00,0,weatherlink.com 1.10,2015-01-30 06:46:00,
2015-01-30 01:01:00,44.4,33.0,30.56,North,5,6.0,10.0,64,0.00,,,0.00,0,weatherlink.com 1.10,2015-01-30 07:01:00,
2015-01-30 01:16:00,44.0,32.0,30.57,North,355,3.0,8.0,64,0.00,,,0.00,0,weatherlink.com 1.10,2015-01-30 07:16:00,
2015-01-30 01:31:00,43.9,33.0,30.56,North,355,5.0,6.0,65,0.00,,,0.00,0,weatherlink.com 1.10,2015-01-30 07:31:00,
2015-01-30 01:46:00,43.5,32.0,30.57,North,355,4.0,6.0,65,0.00,,,0.00,0,weatherlink.com 1.10,2015-01-30 07:46:00,
2015-01-30 02:02:00,43.2,32.0,30.57,North,355,3.0,6.0,66,0.00,,,0.00,0,weatherlink.com 1.10,2015-01-30 08:02:00,
2015-01-30 02:17:00,43.1,33.0,30.57,North,355,4.0,6.0,67,0.00,,,0.00,0,weatherlink.com 1.10,2015-01-30 08:17:00,
2015-01-30 02:32:00,43.1,33.0,30.57,North,360,5.0,10.0,67,0.00,,,0.00,0,weatherlink.com 1.10,2015-01-30 08:32:00,
2015-01-30 02:47:00,43.1,33.0,30.57,North,355,4.0,10.0,67,0.00,,,0.00,0,weatherlink.com 1.10,2015-01-30 08:47:00,
2015-01-30 03:02:00,43.1,33.0,30.56,North,355,5.0,9.0,67,0.00,,,0.00,0,weatherlink.com 1.10,2015-01-30 09:02:00,
2015-01-30 03:17:00,43.0,33.0,30.56,North,349,8.0,11.0,67,0.00,,,0.00,0,weatherlink.com 1.10,2015-01-30 09:17:00,
2015-01-30 03:32:00,42.7,32.0,30.55,North,5,6.0,10.0,67,0.00,,,0.00,0,weatherlink.com 1.10,2015-01-30 09:32:00,
2015-01-30 03:47:00,42.5,32.0,30.55,North,5,6.0,11.0,67,0.00,,,0.00,0,weatherlink.com 1.10,2015-01-30 09:47:00,
2015-01-30 04:02:00,42.2,32.0,30.55,North,11,7.0,10.0,68,0.00,,,0.00,0,weatherlink.com 1.10,2015-01-30 10:02:00,
2015-01-30 04:18:00,42.1,32.0,30.54,North,5,4.0,9.0,68,0.00,,,0.00,0,weatherlink.com 1.10,2015-01-30 10:18:00,
2015-01-30 04:32:00,42.0,32.0,30.54,NNE,24,5.0,10.0,69,0.00,,,0.00,0,weatherlink.com 1.10,2015-01-30 10:32:00,
2015-01-30 04:47:00,41.6,32.0,30.55,North,5,8.0,9.0,69,0.00,,,0.00,0,weatherlink.com 1.10,2015-01-30 10:47:00,
2015-01-30 05:02:00,41.0,32.0,30.55,North,5,4.0,9.0,69,0.00,,,0.00,0,weatherlink.com 1.10,2015-01-30 11:02:00,
2015-01-30 05:17:00,40.5,32.0,30.55,North,5,4.0,6.0,71,0.00,,,0.00,0,weatherlink.com 1.10,2015-01-30 11:17:00,
2015-01-30 05:32:00,40.1,32.0,30.56,North,5,2.0,5.0,72,0.00,,,0.00,0,weatherlink.com 1.10,2015-01-30 11:32:00,
2015-01-30 05:47:00,39.6,32.0,30.57,North,5,2.0,5.0,73,0.00,,,0.00,0,weatherlink.com 1.10,2015-01-30 11:47:00,
2015-01-30 06:02:00,39.3,31.0,30.57,North,5,0.0,0.0,73,0.00,,,0.00,0,weatherlink.com 1.10,2015-01-30 12:02:00,
2015-01-30 06:17:00,38.9,31.0,30.58,North,5,2.0,4.0,74,0.00,,,0.00,0,weatherlink.com 1.10,2015-01-30 12:17:00,
2015-01-30 06:32:00,38.3,31.0,30.59,North,5,0.0,3.0,74,0.00,,,0.00,0,weatherlink.com 1.10,2015-01-30 12:32:00,
2015-01-30 06:47:00,37.9,31.0,30.60,North,360,1.0,5.0,76,0.00,,,0.00,0,weatherlink.com 1.10,2015-01-30 12:47:00,
2015-01-30 07:02:00,37.9,31.0,30.60,North,360,0.0,4.0,76,0.00,,,0.00,0,weatherlink.com 1.10,2015-01-30 13:02:00,
2015-01-30 07:17:00,37.8,31.0,30.60,North,360,0.0,5.0,77,0.00,,,0.00,0,weatherlink.com 1.10,2015-01-30 13:17:00,
2015-01-30 07:32:00,37.6,31.0,30.60,North,360,1.0,5.0,77,0.00,,,0.00,11,weatherlink.com 1.10,2015-01-30 13:32:00,
2015-01-30 07:47:00,37.5,31.0,30.60,North,360,4.0,6.0,77,0.00,,,0.00,30,weatherlink.com 1.10,2015-01-30 13:47:00,
2015-01-30 08:02:00,37.5,31.0,30.60,North,360,2.0,9.0,78,0.00,,,0.00,49,weatherlink.com 1.10,2015-01-30 14:02:00,
2015-01-30 08:17:00,37.6,31.0,30.59,North,5,4.0,9.0,78,0.00,,,0.00,83,weatherlink.com 1.10,2015-01-30 14:17:00,
2015-01-30 08:33:00,38.0,32.0,30.60,North,5,8.0,10.0,79,0.00,,,0.00,128,weatherlink.com 1.10,2015-01-30 14:33:00,
2015-01-30 08:48:00,38.6,32.0,30.60,NNE,14,7.0,11.0,78,0.00,,,0.00,181,weatherlink.com 1.10,2015-01-30 14:48:00,
2015-01-30 09:03:00,39.4,33.0,30.60,NNE,18,7.0,13.0,77,0.00,,,0.00,292,weatherlink.com 1.10,2015-01-30 15:03:00,
2015-01-30 09:18:00,40.3,33.0,30.61,NNE,22,9.0,13.0,75,0.00,,,0.00,320,weatherlink.com 1.10,2015-01-30 15:18:00,
2015-01-30 09:33:00,41.7,33.0,30.61,NE,38,9.0,13.0,72,0.00,,,0.00,343,weatherlink.com 1.10,2015-01-30 15:33:00,
2015-01-30 09:48:00,43.4,33.0,30.62,NE,44,10.0,11.0,68,0.00,,,0.00,341,weatherlink.com 1.10,2015-01-30 15:48:00,
2015-01-30 10:03:00,43.7,33.0,30.61,East,80,8.0,12.0,66,0.00,,,0.00,424,weatherlink.com 1.10,2015-01-30 16:03:00,
2015-01-30 10:18:00,44.5,33.0,30.62,ENE,60,5.0,14.0,64,0.00,,,0.00,482,weatherlink.com 1.10,2015-01-30 16:18:00,
2015-01-30 10:33:00,45.2,33.0,30.61,ENE,74,9.0,14.0,63,0.00,,,0.00,496,weatherlink.com 1.10,2015-01-30 16:33:00,
2015-01-30 10:48:00,45.6,33.0,30.61,ENE,57,9.0,12.0,62,0.00,,,0.00,529,weatherlink.com 1.10,2015-01-30 16:48:00,
2015-01-30 11:03:00,46.4,33.0,30.60,ENE,69,9.0,12.0,61,0.00,,,0.00,570,weatherlink.com 1.10,2015-01-30 17:03:00,
2015-01-30 11:18:00,46.7,33.0,30.59,ENE,59,5.0,13.0,59,0.00,,,0.00,587,weatherlink.com 1.10,2015-01-30 17:18:00,
2015-01-30 11:33:00,47.9,33.0,30.59,ENE,60,10.0,14.0,57,0.00,,,0.00,596,weatherlink.com 1.10,2015-01-30 17:33:00,
2015-01-30 11:48:00,47.7,32.0,30.58,NE,53,6.0,12.0,56,0.00,,,0.00,619,weatherlink.com 1.10,2015-01-30 17:48:00,
2015-01-30 12:03:00,48.7,33.0,30.57,ENE,63,5.0,12.0,55,0.00,,,0.00,649,weatherlink.com 1.10,2015-01-30 18:03:00,
2015-01-30 12:18:00,48.9,33.0,30.56,NE,56,4.0,12.0,55,0.00,,,0.00,633,weatherlink.com 1.10,2015-01-30 18:18:00,
2015-01-30 12:33:00,50.4,34.0,30.55,East,94,10.0,13.0,53,0.00,,,0.00,666,weatherlink.com 1.10,2015-01-30 18:33:00,
2015-01-30 12:48:00,50.5,33.0,30.54,East,98,7.0,12.0,51,0.00,,,0.00,499,weatherlink.com 1.10,2015-01-30 18:48:00,
2015-01-30 13:03:00,50.6,33.0,30.53,NE,56,2.0,11.0,51,0.00,,,0.00,522,weatherlink.com 1.10,2015-01-30 19:03:00,
2015-01-30 13:18:00,51.4,33.0,30.52,East,86,0.0,11.0,49,0.00,,,0.00,508,weatherlink.com 1.10,2015-01-30 19:18:00,
2015-01-30 13:33:00,51.9,33.0,30.51,NE,52,7.0,11.0,49,0.00,,,0.00,446,weatherlink.com 1.10,2015-01-30 19:33:00,
2015-01-30 13:48:00,51.9,33.0,30.50,NE,46,0.0,11.0,49,0.00,,,0.00,413,weatherlink.com 1.10,2015-01-30 19:48:00,
2015-01-30 14:04:00,53.0,34.0,30.49,ENE,70,4.0,9.0,48,0.00,,,0.00,385,weatherlink.com 1.10,2015-01-30 20:04:00,
2015-01-30 14:19:00,53.1,33.0,30.49,East,94,6.0,11.0,47,0.00,,,0.00,366,weatherlink.com 1.10,2015-01-30 20:19:00,
2015-01-30 14:34:00,53.1,32.0,30.48,ENE,63,6.0,11.0,45,0.00,,,0.00,336,weatherlink.com 1.10,2015-01-30 20:34:00,
2015-01-30 14:49:00,53.5,32.0,30.48,East,87,7.0,12.0,45,0.00,,,0.00,399,weatherlink.com 1.10,2015-01-30 20:49:00,
2015-01-30 15:04:00,54.3,33.0,30.48,East,88,7.0,11.0,44,0.00,,,0.00,338,weatherlink.com 1.10,2015-01-30 21:04:00,
2015-01-30 15:19:00,54.0,32.0,30.48,ENE,72,9.0,10.0,43,0.00,,,0.00,390,weatherlink.com 1.10,2015-01-30 21:19:00,
2015-01-30 15:34:00,54.6,32.0,30.47,ENE,74,7.0,10.0,43,0.00,,,0.00,325,weatherlink.com 1.10,2015-01-30 21:34:00,
2015-01-30 15:49:00,54.6,32.0,30.46,ENE,66,5.0,10.0,42,0.00,,,0.00,295,weatherlink.com 1.10,2015-01-30 21:49:00,
2015-01-30 16:04:00,54.8,32.0,30.46,ENE,63,9.0,9.0,42,0.00,,,0.00,287,weatherlink.com 1.10,2015-01-30 22:04:00,
2015-01-30 16:19:00,54.6,32.0,30.46,ENE,64,10.0,11.0,42,0.00,,,0.00,253,weatherlink.com 1.10,2015-01-30 22:19:00,
2015-01-30 16:34:00,54.5,32.0,30.46,ENE,76,9.0,12.0,42,0.00,,,0.00,183,weatherlink.com 1.10,2015-01-30 22:34:00,
2015-01-30 16:49:00,54.1,32.0,30.46,ENE,70,5.0,10.0,43,0.00,,,0.00,102,weatherlink.com 1.10,2015-01-30 22:49:00,
2015-01-30 17:04:00,53.7,31.0,30.45,ENE,76,5.0,11.0,43,0.00,,,0.00,72,weatherlink.com 1.10,2015-01-30 23:04:00,
2015-01-30 17:19:00,53.1,32.0,30.45,ENE,72,8.0,9.0,44,0.00,,,0.00,46,weatherlink.com 1.10,2015-01-30 23:19:00,
2015-01-30 17:34:00,52.6,32.0,30.45,ENE,72,4.0,8.0,45,0.00,,,0.00,28,weatherlink.com 1.10,2015-01-30 23:34:00,
2015-01-30 17:49:00,52.0,32.0,30.46,ENE,72,2.0,5.0,46,0.00,,,0.00,7,weatherlink.com 1.10,2015-01-30 23:49:00,
2015-01-30 18:04:00,51.4,32.0,30.46,ENE,72,3.0,4.0,48,0.00,,,0.00,0,weatherlink.com 1.10,2015-01-31 00:04:00,
2015-01-30 18:19:00,51.0,32.0,30.46,ENE,72,4.0,4.0,49,0.00,,,0.00,0,weatherlink.com 1.10,2015-01-31 00:19:00,